Погода Шамары

Погода Шамары : погода сейчас, прогноз погоды и архив. Всё, что Вы хотите узнать о погоде Шамары!

Поиск расширенной информации на нашем сайте:

Другие новости

Новости СМИ2

Главная страница сайта

Новости сайта

03.07.2017

Напоминаем, что на нашем специализированном сайте Метеоцентр.Азия вы можете получить высокодетализированные автоматические прогнозы погоды по пунктам России, СНГ и мира в авиационном формате (включающие направление и скорость ветра, видимость, явления погоды, количество и форму облачности, нижнюю и верхнюю границу облачности).


Погода Шамары - сегодня

Время (UTC), дата Ветер
(°,м/с) 
Видим.   Явления Облачность Т
(°С)
Тd
(°С)
f(%) Тe
(°С)
Pmin
(гПа)
dP
(гПа)
Po
(мм)
O2
(г/м3)
Тmin Tmax R s Состояние
почвы
03 11.11.18 280 (З) 20000 м  {ливн. осадки}  3/0 верхняя 
[Ci fib]
-13.6 -16.1 81 -14  1047.1  1.7  760  324  -15.1    0.0  равномерный
сухой снег
100% 
06 11.11.18 300 (СЗ) 20000 м  {ливн. осадки}  8/1 600 м верхняя 
[Cu hum|Cs]
-11.3 -14.6 77 -13  1048.1  1.3  761  321           
09 11.11.18 270 (З) 20000 м    9/3 300 м средняя 
[Cu hum|Ac As]
-8.5 -12.5 73 -10  1048.5  0.7  762  318           
12 11.11.18 250 (З) 20000 м    10/1 300 м средняя 
[Cu hum|Ac As]
-8.7 -12 77 -10  1048.3  -0.2  762  318           
18 11.11.18 220 (ЮЗ) 10 км    ясно 
-10.4 -13.4 79 -13  1047.5  -0.7  761  320           
21 11.11.18 230 (ЮЗ) 10 км    ясно 
-10.7 -13.9 77 -15  1046.9  -0.6  760  320           
00 12.11.18 240 (ЮЗ) 10 км    ясно 
-10.9 -15.1 71 -14  1046.7  -0.2  760  320           
06 12.11.18 250 (З) 20000 м    9/0 средняя, верхняя 
[Ac lent|Cs]
-9.3 -15.5 61 -14  1045.7  -0.5  760  318  -11.7         
09 12.11.18 240 (ЮЗ) 20000 м    9/0 средняя 
[Ac As]
-6.4 -14.6 52 -10  1044.2  -1.1  759  314           
12 12.11.18 250 (З) 20000 м    10/5 300 м средняя 
[Cu med, cong|Ac As]
-6.3 -14.3 53 -9  1043.6  -0.5  758  314           
18 12.11.18 240 (ЮЗ) 10 км    9/0 средняя 
[Ac As]
-7.4 -13.9 60 -10  1042.5  -0.8  757  315           
21 12.11.18 240 (ЮЗ) 10 км    6/0 средняя 
[Ac As]
-8 -14.3 60 -11  1042.7  0.2  758  316           
00 13.11.18 220 (ЮЗ) 10 км    3/0 средняя 
[Ac trans]
-9.8 -15.1 65 -12  1042.8  -0.2  757  318           
06 13.11.18 240 (ЮЗ) 20000 м    9/0 средняя, верхняя 
[Ac lent|Cs]
-8.6 -14.3 63 -11  1042.2  0.1  757  316  -10.9         
09 13.11.18 240 (ЮЗ) 20000 м    10/0 средняя, верхняя 
[Ac lent|Cs]
-5.8 -14.2 51 -9  1040.6  -1.2  756  313           
12 13.11.18 230 (ЮЗ) 20000 м    10/0 средняя, верхняя 
[Ac As|Cs]
-6.1 -14.6 51 -9  1039.8  -0.9  756  313           
18 13.11.18 220 (ЮЗ) 10 км    3/0 средняя 
[Ac trans]
-7.8 -14.9 57 -11  1038.9  -0.9  755  314           
21 13.11.18 210 (ЮЗ) 10 км    ясно 
-9.3 -15.3 62 -11  1037.9  -1.1  754  316           
00 14.11.18 210 (ЮЗ) 10 км    3/0 средняя 
[Ac lent]
-9.8 -15 66 -13  1037  -0.9  753  316           
06 14.11.18 220 (ЮЗ) 20000 м    4/0 средняя, верхняя 
[Ac lent|Cc]
-8.1 -15.2 57 -12  1034.9  -0.7  752  313           
12 14.11.18 220 (ЮЗ) 4{10}  20000 м    6/3 600 м средняя, верхняя 
[Cu hum|Ac cast|Cc]
-4.3 -15.4 42 -7  1032.5  -0.5  750  309           
18 14.11.18 210 (ЮЗ) 10 км    1/0 средняя 
[Ac trans]
-6.6 -14.1 55 -8  1033.2  0.4  751  311           
21 14.11.18 210 (ЮЗ) 10 км    ясно 
-6.9 -13.4 60 -8  1034.2  0.9  752  312           
00 15.11.18 220 (ЮЗ) 10 км    ясно 
-8 -13.6 64 -11  1034.9  0.5  752  313           
06 15.11.18 220 (ЮЗ) 20000 м    10/10 600 м 
[Cu Sc]
-7 -12.1 67 -10  1037.2  1.3  754  313           
Время (UTC), дата Ветер
(°,м/с) 
Видим.   Явления Облачность Т
(°С)
Тd
(°С)
f(%) Тe
(°С)
Pmin
(гПа)
dP
(гПа)
Po
(мм)
O2
(г/м3)
Тmin Tmax R s Состояние
почвы

Для получения пояснительной информации подведите курсор к названию столбца.

ПОГОДА Шамары - архив

Всё, что Вы хотите узнать о погоде Шамары - удобно и подробно!

Выберите нужную дату (начиная с 1 января 2015* года) и нажмите кнопку "Найти".
Будут отображены архивные сводки погоды по пункту Шамары, начиная с указанной даты.


Отображать данные в формате CSV (для использования в таблицах Excel)


Внимание! Наш архив погоды предназначен исключительно для личного некоммерческого использования в познавательных целях. Если Вам необходимы официальные справки о состоянии погоды (для производственных, юридических, коммерческих и т.п. целей), обращайтесь в органы Росгидромета.

*Примечание: данная дата относится к архиву по метеостанциям СССР (Россия, СНГ, Балтия).
Архив по метеостанциям Зарубежной Европы и Азии (кроме Китая) хранится 10 дней, по другим регионам земного шара (Китай, Африка, Америка, Австралия, Океания) - 1 день.

Шамары - район местоположения метеостанции


Название, широта, долгота, высота метеостанции:
Шамары 57.3°ш. 58.2°д. 244 м над ур. моря [Российская Федерация]

Дополнительная информация

В oтличие oт бoльшинства пoгoдных сайтoв мы публикуем пoдрoбную метеoинфoрмацию в детальнoм прoфессиoнальнoм фoрмате.

Характеристики температуры и влажнoсти вoздуха измеряются на высoте 2 м в тени вдали oт зданий и деревьев.
Скoрoсть ветра измеряется на высoте 10 м (на урoвне рoста челoвека скoрoсть ветра ниже в 1.5-2 раза). Если метеoстанция нахoдится в гoрoде или в лесу, тo скoрoсть ветра занижена на 2-4 м/с пo сравнению с oткрытым местoм. Скoрoсть ветра над акватoриями крупных рек и oзёр, а также на вершинах хoлмoв на 2-5 м/с выше, чем в oбычных услoвиях.
Атмoсфернoе давление в разных тoчках местнoсти мoжет значительнo oтличаться oт давления на метеoстанции, в зависимoсти oт услoвий рельефа (при пoдъёме на 10 м давление пoнижается примернo на 1 мм рт.ст.).